User: anonymous   Login
Location: Azul
(36.7830°S, 59.8500°W)
Time: 09:27:05
(UTC-03:00)
Language:

STARS - Orbit

View from above orbital plane
View from above orbital plane
View from above satellite
View from above satellite

Ground track
Ground track

The orbit data is extracted from the following two-line orbital elements,

1 33498U 09002G   21295.14718681  .00000421  00000-0  63718-4 0  9999
2 33498  98.1936 177.8074 0009821 303.7885  56.2390 14.79452039686619
Epoch (UTC): 22 October 2021 03:31:56
Eccentricity: 0.0009821
inclination: 98.1936°
perigee height: 624 km
apogee height: 638 km
right ascension of ascending node: 177.8074°
argument of perigee: 303.7885°
revolutions per day: 14.79452039
mean anomaly at epoch: 56.2390°
orbit number at epoch: 68661

The dashed part of the orbit path shows where the satellite is in the earth's shadow,  

DLR